Isanti, MN (55040)

03:10 AM CDT del 23 Marzo 2017 (GMT -0500)
5 Mi SW of Cambridge on Rum River | | Change Station

Alt. 935 ft 45.52 °N, 93.27 °W | Updated 4 seconds ago

Coperto
Coperto
35.3 °F
Sembra 35 °F
N
3.0
Vento Variabile Vento da SE
Gusts 12.0 mph

Oggi
Massima -- | Minima -- °F
--% Possibilità di precip.
Ieri
Massima -- | Minima -- °F
Precip. -- in
Pressione 30.21 in
Visibilità 10.0 miglia
Nuvole Coperto 7000 ft
Raffreddamento del vento 35 °F
Punto di rugiada 22 °F
Umidità 59%
Piovosità 0.00 in
Spessore del manto nevoso Non disponibile.
7:09 AM 7:29 PM
Luna calante, 25% visible
METAR KCBG 230755Z AUTO 13005KT 10SM OVC070 02/M06 A3021 RMK AO2
Pressione 30.21 in
Visibilità 10.0 miglia
Nuvole Coperto 7000 ft
Raffreddamento del vento 35 °F
Punto di rugiada 22 °F
Umidità 59%
Piovosità 0.00 in
Spessore del manto nevoso Non disponibile.
7:09 AM 7:29 PM
Luna calante, 25% visible
METAR KCBG 230755Z AUTO 13005KT 10SM OVC070 02/M06 A3021 RMK AO2

Get Severe Weather Alerts

Thanks for signing up!

Be on the lookout for a verification email in your inbox.

You'll start receiving the daily forecast at 8 AM.

×

10-Day Weather Forecast

Almanac

Astronomia

Mar. 23, 2017 Alba Tramonto
Ora attuale
Crepuscolo civile
Crepuscolo nautico
Crepuscolo astronomico
Luna
Estensione della luce visibile
Lunghezza del giorno
Tomorrow will be .
, % of the Moon is Illuminated

Gli estremi di oggi

State Highs State Lows

Community

WunderPhotos

Upload Photos

1,962,540 foto caricate!

WunderBlog® & News

Nearby

Qualità dell'aria

  Qualità dell'aria Indice AQ Inquinante
Not available.

Profondità neve

Stazione Profondità Altitudine

Attività sismica

Città  Distanza Mag. Data & Ora
Minimo Magnitudo Mostrato è 2.5.

Attività sismica

Città  Distanza Mag. Data & Ora
Minimo Magnitudo Mostrato è 2.5.

Temperature delle acque costiere

Località Temperatura

Stations

Stazioni meteo nelle vicinanze

Ubicazione della stazione Temp. Raffreddamento del vento Punto di rugiada Umidità Vento Precip. Alt. Aggiornato Tipo
                   

Watches & Warnings

There are currently no watches in effect.